Starlink 11322

operational
NORAD ID: 61542 Int'l Des: 2024-184 Owner: SPXS Country: US Constellation: starlink
LEOCIRCULAR

Über Starlink 11322

Beschreibung wird geladen...

Live-Position

3D-Globus wird geladen...

Nächste Überflüge

Höhenverlauf

Altitude vs Time

uPlot chart will show altitude changes over time

Zweizeiliger Elementsatz

1 61542U 24184L 25353.21040672 .00001023 00000-0 13305-4 0 9999
2 61542 53.1601 273.2516 0001502 83.6849 276.4340 15.69703874 68839
Epoch: 19. Dez. 2025 • Age: 10 hours

Aktueller Status

Höhe 379.0 km
Geschwindigkeit 7.68 km/s
Subsatellitenpunkt -52.62°S, 150.12°W
Startdatum 15. Okt. 2024
Alter 1.1 years
Typ internet

Technische Details

Klassifizierung Payload
Masse 960.00 kg
Trockenmasse 910.00 kg
Gesamtmasse 960.00 kg
Länge 0.30 m
Durchmesser 4.10 m
Spannweite 29.00 m
Form Box + pan
Hersteller SPXS
Bus-Typ Starlink V2MD
Phasenstatus In Orbit
Besitzer/Staat SPXS/US

Große Konstellationen

Loading constellations...